Weather History for Leadville, CO

Change the Weather History Date:

Sunday, May 25, 2014

  Actual Average Record
Temperature  
Mean Temperature 37 °F -  
Max Temperature 44 °F 58 °F 70 °F (2006)
Min Temperature 29 °F 29 °F 21 °F (2002)
Degree Days  
Heating Degree Days 28 22  
Month to date heating degree days 664 629  
Since 1 July heating degree days 10550 10630  
Cooling Degree Days 0 0  
Month to date cooling degree days 0 0  
Year to date cooling degree days 0 0  
Moisture  
Dew Point 34 °F    
Average Humidity 80    
Maximum Humidity 92    
Minimum Humidity 67    
Precipitation  
Precipitation 0.11 in 0.02 in 0.28 in (1999)
Month to date precipitation 1.45 0.65  
Year to date precipitation 8.16 3.98  
Sea Level Pressure  
Sea Level Pressure 30.05 in    
Wind  
Wind Speed 5 mph (SE)    
Max Wind Speed 21 mph    
Max Gust Speed 26 mph    
Visibility 8 miles    
Events Rain , Snow , Thunderstorm    
T = Trace of Precipitation, MM = Missing Value Source: NWS Daily Summary

Daily Weather History Graph

Daily Weather History Graph

Search for Another Location

Airport:

Trip Planner

Search our weather history database for the weather conditions in past years. The results will help you decide how hot, cold, wet, or windy it might be!

Date:

Astronomy

May. 25, 2014 Rise Set
Actual Time 5:44 AM MDT 8:20 PM MDT
Civil Twilight 5:13 AM MDT 8:51 PM MDT
Nautical Twilight 4:34 AM MDT 9:30 PM MDT
Astronomical Twilight 3:51 AM MDT 10:14 PM MDT
Moon 3:49 AM MDT (5/25) 5:25 PM MDT (5/25)
Length of Visible Light 15h 38m
Length of Day
14h 36m
Waning Crescent, 10% of the Moon is Illuminated
May 25
Waning Crescent
May 28
New
Jun 5
First Quarter
Jun 12
Full
Jun 19
Last Quarter

Hourly Weather History & Observations

Time (MDT) Temp. Windchill Dew Point Humidity Pressure Visibility Wind Dir Wind Speed Gust Speed Precip Events Conditions
12:23 AM 37.0 °F 32.4 °F 35.1 °F 93% 30.17 in 10.0 mi NNW 5.8 mph - N/A   Overcast
12:53 AM 37.0 °F 29.3 °F 35.1 °F 93% 29.75 in 10.0 mi North 11.5 mph - N/A   Overcast
1:53 AM 37.0 °F 29.3 °F 34.0 °F 89% 29.74 in 10.0 mi North 11.5 mph - N/A   Scattered Clouds
2:28 AM 37.0 °F 34.5 °F 35.1 °F 93% 30.14 in 10.0 mi NE 3.5 mph - N/A   Overcast
2:53 AM 37.4 °F - 35.6 °F 93% 30.14 in 10.0 mi Calm Calm - N/A   Overcast
3:53 AM 37.0 °F 31.6 °F 35.1 °F 93% 29.72 in 10.0 mi South 6.9 mph - N/A   Overcast
4:08 AM 37.0 °F 34.5 °F 36.0 °F 96% 30.12 in 10.0 mi Variable 3.5 mph - N/A   Overcast
4:43 AM 37.0 °F 33.3 °F 36.0 °F 96% 30.12 in 10.0 mi South 4.6 mph - N/A   Overcast
4:53 AM 37.0 °F 33.3 °F 36.0 °F 96% 29.75 in 10.0 mi South 4.6 mph - N/A   Overcast
5:37 AM 37.0 °F 32.4 °F 36.0 °F 96% 30.13 in 4.0 mi SSW 5.8 mph - 0.00 in   Overcast
5:45 AM 36.0 °F 29.0 °F 36.0 °F 100% 30.14 in 2.5 mi South 9.2 mph - 0.00 in   Overcast
5:53 AM 36.0 °F 29.6 °F 36.0 °F 100% 29.82 in 7.0 mi South 8.1 mph - 0.00 in Rain Light Rain
6:07 AM 36.0 °F 31.1 °F 36.0 °F 100% 30.14 in 5.0 mi SSW 5.8 mph - 0.01 in Rain Light Rain
6:53 AM 37.0 °F 34.5 °F 35.1 °F 93% 29.83 in 10.0 mi SSE 3.5 mph - 0.02 in   Overcast
7:01 AM 37.0 °F 34.5 °F 35.1 °F 93% 30.16 in 10.0 mi SSE 3.5 mph - N/A   Overcast
7:26 AM 37.9 °F - 35.1 °F 89% 30.16 in 10.0 mi Calm Calm - N/A   Overcast
7:53 AM 39.0 °F - 36.0 °F 89% 29.84 in 10.0 mi Calm Calm - N/A   Overcast
8:34 AM 39.2 °F 37.0 °F 35.6 °F 87% 30.18 in 10.0 mi SSW 3.5 mph - N/A   Overcast
8:53 AM 39.2 °F - 35.6 °F 87% 30.18 in 10.0 mi Calm Calm - N/A Rain Light Rain
9:15 AM 39.0 °F 33.4 °F 37.0 °F 93% 30.18 in 10.0 mi South 8.1 mph - 0.00 in   Overcast
9:53 AM 39.9 °F 36.7 °F 37.0 °F 89% 29.87 in 10.0 mi South 4.6 mph - 0.00 in   Mostly Cloudy
10:23 AM 44.1 °F 42.5 °F 36.0 °F 73% 30.16 in 10.0 mi WNW 3.5 mph - N/A   Overcast
10:43 AM 42.1 °F 37.1 °F 35.1 °F 76% 30.17 in 9.0 mi NNW 8.1 mph - N/A Thunderstorm Overcast
10:53 AM 37.9 °F 28.2 °F 32.0 °F 79% 29.89 in 5.0 mi NNE 18.4 mph 26.5 mph 0.01 in Rain Rain
10:59 AM 36.0 °F 26.7 °F 32.0 °F 86% 30.17 in 4.0 mi North 15.0 mph 25.3 mph 0.01 in Rain Rain
11:11 AM 36.0 °F 29.0 °F 33.1 °F 89% 30.17 in 5.0 mi North 9.2 mph - 0.02 in Rain , Thunderstorm Light Rain
11:29 AM 37.9 °F 34.4 °F 34.0 °F 86% 30.19 in 10.0 mi SSE 4.6 mph - 0.02 in Thunderstorm Thunderstorm
11:48 AM 35.6 °F 27.1 °F 35.6 °F 100% 30.19 in 10.0 mi South 12.7 mph - 0.02 in Rain Light Rain
11:53 AM 36.0 °F 28.5 °F 34.0 °F 93% 29.93 in 10.0 mi South 10.4 mph - 0.02 in Rain Light Rain
12:08 PM 36.0 °F 32.1 °F 35.1 °F 97% 30.19 in 10.0 mi South 4.6 mph - 0.00 in   Overcast
12:23 PM 36.0 °F - 34.0 °F 93% 30.19 in 8.0 mi Calm Calm - 0.01 in Rain , Thunderstorm Light Rain
12:53 PM 37.9 °F - 35.1 °F 89% 29.91 in 10.0 mi Calm Calm - 0.01 in Rain , Thunderstorm Light Rain
1:29 PM 37.0 °F 32.4 °F 33.1 °F 86% 30.23 in 5.0 mi East 5.8 mph - 0.01 in Rain , Thunderstorm Rain
1:36 PM 34.0 °F 25.0 °F 30.9 °F 89% 30.23 in 1.8 mi ESE 12.7 mph 19.6 mph 0.02 in Snow , Thunderstorm Light Snow
1:49 PM 33.8 °F 25.3 °F 30.2 °F 87% 30.23 in 0.8 mi SSE 11.5 mph 19.6 mph 0.04 in Snow , Thunderstorm Light Snow
1:53 PM 33.1 °F 24.4 °F 30.0 °F 89% 29.99 in 0.8 mi SSE 11.5 mph - 0.04 in Snow , Thunderstorm Light Snow
1:57 PM 33.1 °F 26.9 °F 30.0 °F 89% 30.23 in 0.8 mi SE 6.9 mph - 0.00 in Snow Light Snow
2:08 PM 33.1 °F 30.0 °F 30.9 °F 92% 30.23 in 1.0 mi SE 3.5 mph - 0.01 in Snow Light Snow
2:19 PM 34.0 °F 29.8 °F 32.0 °F 92% 30.23 in 3.0 mi North 4.6 mph - 0.01 in Snow Light Snow
2:26 PM 36.0 °F 33.3 °F 32.0 °F 86% 30.22 in 9.0 mi North 3.5 mph - 0.01 in Snow Light Snow
2:53 PM 37.9 °F 34.4 °F 33.1 °F 83% 29.93 in 10.0 mi NNE 4.6 mph - 0.01 in   Overcast
3:53 PM 39.9 °F - 33.1 °F 77% 29.90 in 10.0 mi Calm Calm - N/A   Overcast
4:53 PM 42.1 °F 40.2 °F 32.0 °F 67% 29.89 in 10.0 mi SW 3.5 mph - N/A   Mostly Cloudy
5:53 PM 37.9 °F 30.0 °F 35.1 °F 89% 29.94 in 10.0 mi South 12.7 mph - N/A   Overcast
6:53 PM 39.9 °F - 33.1 °F 77% 29.90 in 10.0 mi Calm Calm - N/A   Overcast
7:53 PM 39.0 °F 36.8 °F 33.1 °F 79% 29.91 in 10.0 mi East 3.5 mph - N/A   Scattered Clouds
8:53 PM 36.0 °F 33.3 °F 32.0 °F 86% 29.95 in 10.0 mi ENE 3.5 mph - N/A   Mostly Cloudy
9:53 PM 32.0 °F 27.5 °F 28.9 °F 88% 30.01 in 10.0 mi ENE 4.6 mph - N/A   Clear
10:53 PM 30.0 °F 26.5 °F 28.9 °F 96% 30.06 in 10.0 mi NNE 3.5 mph - N/A   Clear
11:53 PM 30.0 °F 24.1 °F 28.0 °F 92% 30.07 in 10.0 mi NE 5.8 mph - N/A   Clear